This is the latest recevied weather packets stored in our database for station/object DL6DJ-15. If no packets are shown the sender has not sent any weather packets the latest 10 day(s).
| Time | Temp. | Humidity | Pressure | Rain* | Wind** | Luminosity | Snow |
|---|---|---|---|---|---|---|---|
| 1787937368 | 20° C | 87% | 1015.6 hPa | - | - | - | - |
| 1787937068 | 20.56° C | 85% | 1015.6 hPa | - | - | - | - |
| 1787936767 | 20.56° C | 83% | 1015.5 hPa | - | - | - | - |
| 1787936467 | 20.56° C | 84% | 1015.5 hPa | - | - | - | - |
| 1787936166 | 20.56° C | 85% | 1015.7 hPa | - | - | - | - |
| 1787935867 | 20.56° C | 85% | 1015.6 hPa | - | - | - | - |
| 1787935566 | 20.56° C | 84% | 1015.5 hPa | - | - | - | - |
| 1787935265 | 20.56° C | 84% | 1015.5 hPa | - | - | - | - |
| 1787934965 | 20.56° C | 85% | 1015.6 hPa | - | - | - | - |
| 1787934664 | 20.56° C | 86% | 1015.7 hPa | - | - | - | - |
| 1787934364 | 20.56° C | 85% | 1015.8 hPa | - | - | - | - |
| 1787934064 | 20.56° C | 84% | 1015.6 hPa | - | - | - | - |
| 1787933764 | 20.56° C | 82% | 1015.4 hPa | - | - | - | - |
| 1787933464 | 21.11° C | 82% | 1015.4 hPa | - | - | - | - |
| 1787933163 | 21.11° C | 81% | 1015.1 hPa | - | - | - | - |
| 1787932862 | 21.11° C | 80% | 1015.1 hPa | - | - | - | - |
| 1787932562 | 21.11° C | 82% | 1014.8 hPa | - | - | - | - |
| 1787932262 | 20.56° C | 82% | 1015.2 hPa | - | - | - | - |
| 1787931961 | 21.11° C | 82% | 1015.5 hPa | - | - | - | - |
| 1787931660 | 21.11° C | 82% | 1015.7 hPa | - | - | - | - |
| 1787931360 | 20.56° C | 86% | 1016.2 hPa | - | - | - | - |
| 1787931060 | 20.56° C | 85% | 1016.3 hPa | - | - | - | - |
| 1787930759 | 20.56° C | 83% | 1016.5 hPa | - | - | - | - |
| 1787930459 | 20.56° C | 82% | 1016.4 hPa | - | - | - | - |
| 1787930159 | 20.56° C | 84% | 1016.4 hPa | - | - | - | - |
* Rain since midnight (hover to see other rain measurements)
** Current wind speed in m/s (hover to see current wind gust speed)